Hagerstown, MD

4:27 AM EDT on October 17, 2019 (GMT -0400)
Hagerstown Regional-Henson

Weather History for KHGR - August, 2019

Change the Weather History Date:

Saturday, August 3, 2019

  Actual Average Record
Temperature  
Mean Temperature 79 °F 75 °F  
Max Temperature 89 °F 85 °F 96 °F (2006)
Min Temperature 68 °F 65 °F 59 °F (1998)
Degree Days  
Heating Degree Days 0 0  
Month to date heating degree days 0 0  
Since 1 June heating degree days 5 18  
Since 1 July heating degree days 0 0  
Cooling Degree Days 14 10  
Month to date cooling degree days 40 30  
Year to date cooling degree days 907 636  
Since 1 June cooling degree days 725 560  
Growing Degree Days 29 (Base 50)    
Moisture  
Dew Point 67 °F    
Average Humidity 68    
Maximum Humidity 90    
Minimum Humidity 46    
Precipitation  
Precipitation 0.75 in 0.10 in 0.75 in (2019)
Month to date precipitation 0.75 0.28  
Year to date precipitation 26.72 23.77  
Sea Level Pressure  
Sea Level Pressure 30.01 in    
Wind  
Wind Speed 5 mph (SE)    
Max Wind Speed 29 mph    
Max Gust Speed 34 mph    
Visibility 8 miles    
Events Fog , Rain , Thunderstorm    
T = Trace of Precipitation, MM = Missing Value Source: NWS Daily Summary

Daily Weather History Graph

Daily Weather History Graph

Search for Another Location

Airport or City:

Astronomy

Aug. 03, 2019 Rise Set
Actual Time 6:11 AM EDT 8:22 PM EDT
Civil Twilight 5:41 AM EDT 8:51 PM EDT
Nautical Twilight 5:04 AM EDT 9:28 PM EDT
Astronomical Twilight 4:24 AM EDT 10:08 PM EDT
Moon 9:01 AM EDT (8/3) 10:26 PM EDT (8/3)
Length of Visible Light 15h 10m
Length of Day
14h 10m
Waxing Crescent, 10% of the Moon is Illuminated
Aug 3
Waxing Crescent
Aug 7
First Quarter
Aug 15
Full
Aug 23
Last Quarter
Aug 30
New

Hourly Weather History & Observations

Time (EDT) Temp. Heat Index Dew Point Humidity Pressure Visibility Wind Dir Wind Speed Gust Speed Precip Events Conditions
12:53 AM 73.0 °F - 64.9 °F 76% 30.09 in 10.0 mi SE 5.8 mph - N/A   Clear
1:53 AM 72.0 °F - 64.9 °F 78% 30.09 in 10.0 mi SE 4.6 mph - N/A   Clear
2:53 AM 71.1 °F - 64.9 °F 81% 30.07 in 10.0 mi ESE 5.8 mph - N/A   Scattered Clouds
3:53 AM 72.0 °F - 66.0 °F 81% 30.07 in 10.0 mi SE 4.6 mph - N/A   Clear
4:53 AM 71.1 °F - 66.0 °F 84% 30.07 in 10.0 mi Calm Calm - N/A   Partly Cloudy
5:53 AM 70.0 °F - 66.0 °F 87% 30.07 in 10.0 mi Calm Calm - N/A   Partly Cloudy
6:53 AM 70.0 °F - 66.0 °F 87% 30.08 in 8.0 mi Calm Calm - N/A   Clear
7:53 AM 72.0 °F - 66.9 °F 84% 30.07 in 8.0 mi WNW 3.5 mph - N/A   Clear
8:53 AM 75.0 °F - 68.0 °F 79% 30.08 in 7.0 mi Calm Calm - N/A   Partly Cloudy
9:53 AM 77.0 °F - 69.1 °F 76% 30.07 in 8.0 mi Calm Calm - N/A   Mostly Cloudy
10:53 AM 80.1 °F 82.7 °F 68.0 °F 67% 30.06 in 10.0 mi Calm Calm - N/A   Scattered Clouds
11:16 AM 80.1 °F 82.7 °F 68.0 °F 67% 30.04 in 10.0 mi SW 5.8 mph - N/A   Mostly Cloudy
11:53 AM 82.0 °F 84.5 °F 66.9 °F 60% 30.05 in 10.0 mi SSW 3.5 mph - N/A   Mostly Cloudy
12:53 PM 84.0 °F 86.5 °F 66.9 °F 56% 30.02 in 10.0 mi Variable 4.6 mph - N/A   Mostly Cloudy
1:53 PM 86.0 °F 89.4 °F 68.0 °F 55% 30.01 in 10.0 mi SSW 8.1 mph - N/A   Mostly Cloudy
2:00 PM 84.9 °F 87.1 °F 66.0 °F 53% 30.00 in 10.0 mi South 6.9 mph - N/A   Mostly Cloudy
2:53 PM 86.0 °F 88.2 °F 66.0 °F 51% 29.99 in 10.0 mi SSW 8.1 mph - N/A   Scattered Clouds
3:53 PM 86.0 °F 87.6 °F 64.9 °F 49% 29.96 in 10.0 mi South 3.5 mph - N/A   Mostly Cloudy
4:53 PM 87.1 °F 88.3 °F 64.0 °F 46% 29.94 in 10.0 mi West 5.8 mph - N/A   Scattered Clouds
5:53 PM 88.0 °F 90.3 °F 66.0 °F 48% 29.93 in 10.0 mi South 10.4 mph - N/A   Partly Cloudy
6:20 PM 84.0 °F 87.0 °F 68.0 °F 58% 29.92 in 10.0 mi East 9.2 mph - N/A Thunderstorm Thunderstorm
6:53 PM 79.0 °F - 66.9 °F 66% 29.94 in 10.0 mi ESE 6.9 mph - N/A Thunderstorm Thunderstorm
7:20 PM 73.0 °F - 68.0 °F 84% 29.94 in 1.8 mi NE 12.7 mph - 0.10 in Rain , Thunderstorm Heavy Thunderstorms and Rain
7:38 PM 72.0 °F - 68.0 °F 87% 29.97 in 0.5 mi North 24.2 mph 32.2 mph 0.48 in Fog , Rain , Thunderstorm Heavy Thunderstorms and Rain
7:53 PM 72.0 °F - 66.9 °F 84% 30.00 in 1.2 mi East 17.3 mph 31.1 mph 0.70 in Rain , Thunderstorm Heavy Thunderstorms and Rain
7:56 PM 72.0 °F - 66.9 °F 84% 29.98 in 1.8 mi East 16.1 mph 23.0 mph 0.02 in Rain , Thunderstorm Heavy Thunderstorms and Rain
8:00 PM 73.0 °F - 64.0 °F 73% 29.98 in 2.0 mi East 11.5 mph 23.0 mph 0.05 in Rain , Thunderstorm Heavy Thunderstorms and Rain
8:53 PM 73.4 °F - 68.0 °F 83% 29.95 in 10.0 mi South 5.8 mph - N/A   Mostly Cloudy
9:53 PM 73.4 °F - 66.2 °F 78% 29.98 in 10.0 mi NE 6.9 mph - N/A   Clear